Belize City, Belize

6:52 PM CST on January 22, 2017 (GMT -0600)
Philip S W Goldson International

Weather History for MZBZ - March, 2014

Change the Weather History Date:

Saturday, March 1, 2014

  Actual Average Record
Temperature  
Mean Temperature 78 °F -  
Max Temperature 85 °F 85 °F 91 °F (1998)
Min Temperature 72 °F 71 °F 66 °F (2016)
Cooling Degree Days 14    
Growing Degree Days 28 (Base 50)    
Moisture  
Dew Point 72 °F    
Average Humidity 74    
Maximum Humidity 92    
Minimum Humidity 58    
Precipitation  
Precipitation 0.00 in 0.08 in - ()
Sea Level Pressure  
Sea Level Pressure 30.03 in    
Wind  
Wind Speed 5 mph ()    
Max Wind Speed 10 mph    
Max Gust Speed -    
Visibility 8.6 miles    
Events      
Averages and records for this station are not official NWS values.
T = Trace of Precipitation, MM = Missing Value Source: Averaged Metar Reports

Daily Weather History Graph

Daily Weather History Graph

Search for Another Location

Airport or City:

Trip Planner

Search our weather history database for the weather conditions in past years. The results will help you decide how hot, cold, wet, or windy it might be!

Date:

Astronomy

Mar. 01, 2014 Rise Set
Actual Time 6:11 AM CST 5:59 PM CST
Civil Twilight 5:49 AM CST 6:21 PM CST
Nautical Twilight 5:24 AM CST 6:46 PM CST
Astronomical Twilight 4:59 AM CST 7:11 PM CST
Moon 6:13 AM CST (3/1) 6:33 PM CST (3/1)
Length of Visible Light 12h 31m
Length of Day
11h 48m
New Moon, 0% of the Moon is Illuminated
Mar 1
New Moon
Mar 8
First Quarter
Mar 16
Full
Mar 23
Last Quarter
Mar 30
New

Hourly Weather History & Observations

Time (CST) Temp. Heat Index Dew Point Humidity Pressure Visibility Wind Dir Wind Speed Gust Speed Precip Events Conditions
12:00 AM 74 °F - 72 °F 92% 29.99 in 12 mi Calm Calm - -   Clear
3:00 AM 74 °F - 71 °F 89% 29.97 in 12 mi ESE 3.5 mph - -   Scattered Clouds
5:00 AM 75.2 °F - 71.6 °F 89% 29.97 in 6.2 mi East 3.5 mph - N/A   Partly Cloudy
6:00 AM 75 °F - 72 °F 87% 30.00 in 12 mi East 3.5 mph - -   Scattered Clouds
6:00 AM 75.2 °F - 71.6 °F 89% 29.99 in 6.2 mi East 3.5 mph - N/A   Partly Cloudy
7:00 AM 77.0 °F - 71.6 °F 83% 30.02 in 6.2 mi ESE 4.6 mph - N/A   Partly Cloudy
8:00 AM 80.6 °F 85.4 °F 73.4 °F 79% 30.05 in 6.2 mi East 5.8 mph - N/A   Partly Cloudy
9:00 AM 82 °F - 72 °F 65% 30.08 in 14 mi East 8.1 mph - -   Partly Cloudy
9:00 AM 82.4 °F 87.2 °F 71.6 °F 70% 30.07 in 6.2 mi East 8.1 mph - N/A   Scattered Clouds
10:00 AM 82.4 °F 87.2 °F 71.6 °F 70% 30.08 in 6.2 mi East 9.2 mph - N/A   Scattered Clouds
11:00 AM 84.2 °F 89.6 °F 71.6 °F 66% 30.08 in 6.2 mi East 9.2 mph - N/A   Scattered Clouds
12:00 PM 84 °F - 72 °F 60% 30.06 in 14 mi ESE 6.9 mph - -   Partly Cloudy
12:00 PM 84.2 °F 94.1 °F 77.0 °F 79% 30.06 in 6.2 mi ESE 6.9 mph - N/A   Scattered Clouds
1:00 PM 84.2 °F 89.6 °F 71.6 °F 66% 30.04 in 6.2 mi North - - N/A   Scattered Clouds
2:00 PM 84.2 °F 89.6 °F 71.6 °F 66% 30.02 in 6.2 mi East 10.4 mph - N/A   Scattered Clouds
3:00 PM 84 °F - 72 °F 58% 30.01 in 14 mi East 10.4 mph - -   Partly Cloudy
3:00 PM 84.2 °F 89.6 °F 71.6 °F 66% 30.00 in 6.2 mi East 10.4 mph - N/A   Scattered Clouds
4:00 PM 84.2 °F 89.6 °F 71.6 °F 66% 30.00 in 6.2 mi East 9.2 mph - N/A   Partly Cloudy
5:00 PM 82.4 °F 87.2 °F 71.6 °F 70% 30.01 in 6.2 mi East 8.1 mph - N/A   Partly Cloudy
6:00 PM 80 °F - 71 °F 67% 30.02 in 14 mi East 6.9 mph - -   Partly Cloudy
6:00 PM 80.6 °F 84.6 °F 71.6 °F 74% 30.02 in 6.2 mi East 6.9 mph - N/A   Scattered Clouds
7:00 PM 78.8 °F - 71.6 °F 78% 30.03 in 6.2 mi ESE 3.5 mph - N/A   Scattered Clouds
8:00 PM 77.0 °F - 69.8 °F 78% 30.05 in 6.2 mi East 4.6 mph - N/A   Partly Cloudy
9:00 PM 77 °F - 69 °F 71% 30.06 in 14 mi ESE 4.6 mph - -   Scattered Clouds